LFBPLFBT

Guest
Details From LFBP - Pau Pyrenees
To LFBT - Tarbes Ossun Lourdes
Flight Number -
Tags generated
Created
Modified
Stats Distance 25 nm / 47 km
Max Altitude 300 ft / 91 m
Waypoints 3
Social Downloads 3
Likes 0
Share VATSIM

Download

Looking for another format? Having issues loading an existing format? Contact us
Advertisement - Login to hide

Notes

Basic altitude profile: - Ascent Rate: 2500ft/min - Ascent Speed: 250kts - Cruise Altitude: 35000ft - Cruise Speed: 420kts - Descent Rate: 1500ft/min - Descent Speed: 250kts Options: - Use NATs: yes - Use PACOTS: yes - Use low airways: yes - Use high airways: yes

Route

LFBP OBUTO LFBT

ID Type Via Altitude Latitude Longitude Leg Dist Tot Dist Heading (true) Name
O LFBP APT - 0 ft / 0 m 43.38108˚ -0.42075˚ - 0 nm - Pau Pyrenees
OBUTO FIX - 300 ft / 91 m 43.15917˚ 0.02083˚ 23 nm 23 nm 124° / 125° -
O LFBT APT - 0 ft / 0 m 43.17864˚ -0.00634˚ 1 nm 25 nm 315° / 314° Tarbes Ossun Lourdes

Altitude Profile

Advertisement - Login to hide

LFBP

Details ICAO LFBP (PUF)
Name Pau Pyrenees
Region France
Timezone Europe/Paris (UTC+1.0)
Stats Elevation 616 ft / 188 m (AMSL)
Location 43.381078° -0.420752°
Runways 1
Magnetic Variation 0.095° E

METAR

LFBP 161900Z AUTO 26003KT 9999 FEW041 BKN062 04/03 Q1026 TEMPO 4000 -SHRA BKN015TCU

Decode

TAF

TAF LFBP 161700Z 1618/1718 27005KT 9999 FEW030 BKN040 BKN070 PROB30 TEMPO 1618/1621 4000 -SHRA BKN015TCU BECMG 1700/1702 12005KT PROB30 1621/1704 2000 BR BKN003 BECMG 1710/1712 23005KT

Decode

Departure Runways

ID Width Length Bearing (true) Bearing (mag) Surface Threshold Offset Overrun Length
13 148 ft / 45 m 8,191 ft / 2,497 m 125.89° 125.80° Asphalt 0 ft / 0 m 0 ft / 0 m
31 148 ft / 45 m 8,191 ft / 2,497 m 305.90° 305.81° Asphalt 0 ft / 0 m 0 ft / 0 m

LFBT

Details ICAO LFBT (LDE)
Name Tarbes Ossun Lourdes
Region France
Timezone Europe/Paris (UTC+1.0)
Stats Elevation 1,260 ft / 384 m (AMSL)
Location 43.178643° -0.006340°
Runways 1
Magnetic Variation 0.219° E

METAR

LFBT 161900Z AUTO 26008KT 9999 FEW044 04/01 Q1026 TEMPO 4000 -SHRA BKN006 BKN015TCU

Decode

TAF

TAF LFBT 161700Z 1618/1718 28012KT 9999 SCT030 BKN045 PROB40 TEMPO 1618/1622 4000 -SHRA BKN006 BKN015TCU

Decode

Destination Runways

ID Width Length Bearing (true) Bearing (mag) Surface Threshold Offset Overrun Length
02 148 ft / 45 m 9,847 ft / 3,001 m 20.26° 20.04° Asphalt 2,199 ft / 670 m 0 ft / 0 m
20 148 ft / 45 m 9,847 ft / 3,001 m 200.27° 200.05° Asphalt 0 ft / 0 m 0 ft / 0 m

Approach Navaids

Runway Type Ident Frequency Range Bearing (true) Bearing (mag) Slope Elevation
20 Localiser OS 109.50 MHz 18 nm / 33 km 200.27° 200.05° - 1,265 ft / 386 m (AMSL)
20 Glidescope OS 109.50 MHz 10 nm / 19 km 200.27° 200.05° 3.00° 1,265 ft / 386 m (AMSL)
20 DME OS 109.50 MHz 18 nm / 33 km - - - 1,217 ft / 371 m (AMSL)

Popular Alternatives